www.pogodaiklimat.ru

Погода и климат >> Архив погоды >> Украина >> Перечин


ПОГОДА в Перечине

  • Прогноз погоды в Перечине
  • Монитор погоды в Перечине

АРХИВ ПОГОДЫ в Перечине

Время (UTC), дата Ветер
(напр.,м/с)
 
Видим.   Явления Облачность Т
(С)
Тd
(С)
f
(%)
Тe
(С)
Тes
(С)
Комфортность P
(гПа)
Po
(гПа)
Тmin
(С)
Tmax
(С)
R
(мм)
R24
(мм)
S
(см)
03 10.09 Ю 1 20 км 10/9 870 м
[Cb calv Ac und]
+12.7 +11.2 91 +13 +13 1018.8 995.0
06 10.09 штиль 0 50 км 8/3 1000 м
[Cu med, cong Ci fib]
+12.8 +11.1 89 +12 +14 1019.7 995.9 +11.5 3
09 10.09 Ю 3 50 км 8/5 1000 м
[Cu med, cong Ci fib]
+16.5 +10.5 68 +16 +20 1019.6 996.1
12 10.09 Ю 2 50 км 8/6 1000 м
[Cu med, cong Ci fib]
+20.2 +8.8 48 +22 +25 комфорт 1019.4 996.2
15 10.09 З 2 50 км 9/3 1000 м
[Cu med, cong Ci fib]
+20.6 +8.4 45 +23 +24 комфорт 1019.3 996.1
18 10.09 С 1 20 км 6/0
[Ac lent Ci fib]
+14.2 +11.5 84 +15 +15 1021.0 997.2 +21.0
21 10.09 штиль 0 20 км 6/0
[Ci fib]
+10.9 +9.5 91 +10 +10 1022.6 998.5
00 11.09 штиль 0 20 км 3/0
[Ci fib]
+8.7 +7.8 94 +8 +8 1023.6 999.3
03 11.09 штиль 0 20 км ясно +7.7 +7.3 97 +7 +7 1024.2 999.8
06 11.09 штиль 0 50 км 4/0
[Ci fib]
+8.0 +7.1 94 +7 +9 1025.2 1000.8 +6.3
12 11.09 Ю 4 50 км 4/4 1000 м
[Cu med, cong]
+24.6 +10.9 42 +26 +30 жарко 1021.8 998.8
15 11.09 З 2 50 км 4/3 1000 м
[Cu hum Ci fib]
+25.5 +5.9 28 +25 +26 комфорт 1021.0 998.1
18 11.09 С 1 20 км 8/0
[Cc]
+17.5 +13.0 75 +19 +19 1023.3 999.8 +25.8
21 11.09 С 2 20 км 8/0
[Ci sp]
+12.9 +11.4 91 +12 +12 1025.4 1001.4
00 12.09 штиль 0 20 км 8/0
[Ci fib]
+11.2 +10.0 92 +10 +10 1026.0 1001.9
03 12.09 штиль 0 20 км 6/4 1000 м
[Sc Ci fib]
+9.9 +9.3 96 +9 +9 1027.1 1002.8
06 12.09 штиль 0 20 км 8/6 1000 м
[Sc Ci fib]
+9.4 +8.4 93 +9 +9 1027.8 1003.5 +9.0
09 12.09 штиль 0 20 км 8/3 1000 м
[Cu hum Ci fib]
+18.3 +11.1 63 +19 +26 1026.6 1003.0
12 12.09 З 2 50 км 8/4 1000 м
[Cu med, cong Ci fib]
+24.8 +9.2 37 +25 +30 комфорт 1025.1 1002.1
15 12.09 З 3 50 км 8/5 1000 м
[Cb calv Ci fib]
+25.7 +6.8 30 +26 +26 жарко 1024.3 1001.4
18 12.09 С 2 20 км 4/4 1000 м
[Cb calv]
+18.4 +13.6 74 +19 +19 1027.1 1003.5 +26.1
21 12.09 штиль 0 20 км ясно +14.2 +12.4 89 +14 +14 1028.9 1005.0
00 13.09 штиль 0 20 км ясно +12.0 +10.9 93 +11 +11 1029.3 1005.2
03 13.09 штиль 0 20 км 3/0
[Ac lent]
+10.8 +9.8 94 +10 +10 1029.7 1005.5
06 13.09 штиль 0 20 км 8/0
[Cc]
+12.7 +10.6 87 +12 +14 1029.1 1005.0 +10.6
09 13.09 С 2 20 км 1/1 1000 м
[Cu med, cong]
+19.8 +11.7 60 +22 +30 комфорт 1027.4 1003.9
12 13.09 Ю 2 20 км 6/4 1000 м
[Cu med, cong Ci fib]
+24.3 +9.0 38 +25 +30 комфорт 1025.3 1002.2
15 13.09 З 2 50 км 6/4 1000 м
[Cu Sc Ci fib]
+24.1 +5.6 30 +24 +25 комфорт 1024.7 1001.6
18 13.09 С 1 20 км 3/0
[Ac trans]
+16.8 +11.2 70 +18 +18 1026.9 1003.2 +24.7
21 13.09 штиль 0 20 км 9/0
[Ac trans]
+12.8 +11.1 89 +12 +12 1028.2 1004.2
00 14.09 штиль 0 20 км 9/6 1000 м
[Cb calv Ac trans]
+13.6 +11.8 89 +13 +13 1028.0 1004.0
03 14.09 штиль 0 20 км 10/10 960 м
[Sc]
+12.0 +11.2 95 +11 +11 1028.1 1004.0
06 14.09 С 3 20 км 9/8 900 м
[Cb calv Ac trans]
+14.9 +11.3 79 +14 +14 1028.2 1004.3 +11.6
09 14.09 С 4 20 км 9/8 840 м
[Cb calv Ac trans]
+14.8 +8.6 66 +14 +15 1029.7 1005.8
12 14.09 С 3 20 км 8/8 1000 м
[Cu med, cong]
+18.0 +5.1 43 +18 +20 1028.7 1005.1
15 14.09 С 5 20 км 8/0
[Ac trans Ci fib]
+17.3 +3.2 39 +17 +17 1028.2 1004.5
18 14.09 С 3 20 км 4/0
[Ci fib]
+12.1 +4.1 58 +11 +11 1029.8 1005.7 +18.2
00 15.09 штиль 0 20 км 3/0
[Ci fib]
+5.2 +3.8 91 +4 +4 1031.3 1006.5
06 15.09 штиль 0 20 км 6/0
[Ci fib]
+3.6 +2.9 95 +2 +4 1030.2 1005.3 +2.7
12 15.09 Ю 2 20 км 8/0
[Ac lent Ci fib]
+18.7 +5.1 41 +20 +25 1024.1 1000.6
18 15.09 Ю 4 20 км 6/0
[Ci fib]
+16.5 +4.1 44 +16 +16 1021.7 998.1 +19.6
00 16.09 штиль 0 20 км 8/0
[Ci fib]
+5.7 +4.8 94 +5 +5 1023.0 998.5
06 16.09 штиль 0 50 км 8/0
[Ac lent Ci fib]
+4.4 +3.9 97 +3 +4 1021.8 997.2 +3.3
18 16.09 ЮЗ 2 20 км 9/6 1000 м
[Cb calv Ac trans Ci ing]
+18.2 +10.6 61 +19 +19 1013.0 989.7 +22.2
00 17.09 С 1 10 км слаб. ливневой дождь 10/10 800 м
[Cb calv]
+13.8 +12.5 92 +14 +14 1013.8 990.2

 

Местоположение метеостанции Перечин (Закарпатская область, Украина): широта 48.73 долгота 22.47 высота над уровнем моря 198 м.

В архиве по умолчанию представлена погода в Перечине за последнюю неделю. Архивные данные за месяц целиком и за предыдущие месяцы, начиная с января 2011 года, Вы можете получить, выбрав интересующий диапазон дат из раскрывающегося списка и нажав кнопку "Ввод!".


*Определитесь, кто Вы:
робот инопланетянин человек

Внимание! Время в таблицах - всемирное. Для получения местного времени необходимо прибавить поправку, которая равна 2 ч.

Смотрите также архив погоды в соседних городах и на ближайших метеорологических станциях:

Погода в Ужгороде (Закарпатская область, Украина) (18 км)
Погода в Великом Березном (Закарпатская область, Украина) (19 км)
Погода в Каменице-над-Сирочью (Словакия) (41 км)
Погода в Захони (Венгрия) (43 км)
Погода в Плае (Черновицкая область, Украина) (52 км)
Погода в Мильхостове (Словакия) (55 км)
Погода в Турке (Львовская область, Украина) (60 км)
Погода в Берегове (Закарпатская область, Украина) (60 км)
Погода в Нижнем Студеном (Закарпатская область, Украина) (66 км)
Погода в Стропкове (Словакия) (81 км)

Пояснения к столбцам:

Ветер - указаны скорость ветра в м/с - средняя за 10 мин, порывы в срок и между сроками (в фигурных скобках) и направление, откуда дует ветер: С - северный, СВ - северо-восточный, В - восточный, ЮВ - юго-восточный, Ю - южный, ЮЗ - юго-западный, З - западный, СЗ - северо-западный.
Видимость - горизонтальная дальность видимости в метрах или километрах. При видимости от 1 до 10 км при отсутствии осадков обычно наблюдается дымка, при ухудшении видимости до 1 км и менее - туман. В сухую погоду видимость может ухудшаться дымом, пылью или мглою.
Явления - указаны атмосферные явления, наблюдавшиеся в срок или в последний час перед сроком; фигурными скобками обозначены явления, наблюдавшиеся между сроками (за 1-3 часа до срока); квадратными скобками обозначены град или гололедные отложения с указанием их диаметра в мм.
Облачность - указаны через наклонную черту общая и нижняя облачность в баллах и высота нижней границы облаков в метрах; квадратными скобками обозначены формы облаков: Ci - перистые, Cs - перисто-слоистые, Cc - перисто-кучевые, Ac - высококучевые, As - высокослоистые, Sc - слоисто-кучевые, Ns - слоисто-дождевые, Cu - кучевые, Cb - кучево-дождевые. Подробнее классификацию облаков см. в Атласе облаков (PDF).
T - Температура воздуха - температура, измеренная на высоте 2 м над землей.
Td - Температура точки росы - температура, при понижении до которой содержащийся в воздухе водяной пар достигнет насыщения.
f - Относительная влажность воздуха - влажноcть воздуха, измеренная на высоте 2 м над землей.
Te - Эффективная температура - температура, которую ощущает одетый по сезону человек в тени. Характеристика душности погоды. При расчете учитывается влияние влажности воздуха и скорости ветра на теплоощущения человека.
Tes - Эффективная температура на солнце - температура, которую ощущает человек, с поправкой на солнечный нагрев. Характеристика знойности погоды. Зависит от высоты солнца над горизонтом, облачности и скорости ветра. Ночью, в пасмурную погоду, а также при ветре 12 м/с и более поправка равна нулю.
P - Атмосферное давление - приведенное к уровню моря атмосферное давление.
Po - Атмосферное давление - измеренное на уровне метеостанции атмосферное давление.
Tmin - Минимальная температура - минимум температуры воздуха на высоте 2 м над землей.
Tmax - Максимальная температура - максимум температуры воздуха на высоте 2 м над землей.
R - Количество осадков - Количество выпавших осадков за период времени, мм. При наведении курсора мыши на число - период времени, за который выпало указанное количество осадков.
R24 - Количество осадков - Количество выпавших осадков за 24 часа, мм.
S - Снежный покров - Высота снежного покрова, см. При наведении курсора мыши на число - состояние снежного покрова и степень покрытия местности в баллах.